Location: Julian California
(33.0790°N, 116.6010°W)
Time: 11:12:26
(UTC-07:00)

Meteor 1-24 Rocket - Pass Details

Date: 14 June 2018
Orbit: 790 x 927 km, 81.3° (Epoch: 20 June)

Event Time Altitude Azimuth Distance (km) Brightness Sun altitude
Exits shadow 22:25:47 52° 176° (S) 1,121 3.9 -24.4°
Maximum altitude 22:27:20 82° 96° (E) 932 3.7 -24.5°
Drops below altitude 10° 22:33:22 10° 10° (N) 2,631 6.8 -25.3°
Sets 22:35:52 0° 10° (N) 3,577 7.6 -25.5°
